Total_Precipitation_Accumulation
1.71 2.19 2.83 3.51 4.29 5.42 6.09 6.23 5.98 5.29 4.79 4.38 4.13 3.86 3.61 3.34 2.86 2.48 2.24 2.12 1.98 1.90 2.12 1.95 2.00 1.85 1.89 1.95 2.00 2.25 2.36 2.16 2.33 2.69 2.50 2.19 1.95 1.94 1.86 1.79 1.90 1.92 1.98
1.60 2.19 2.95 3.77 4.44 4.99 5.35 5.44 5.07 4.32 3.84 3.60 3.53 3.27 3.08 2.77 2.56 2.33 2.29 1.98 1.89 1.89 1.80 1.99 1.82 1.73 1.94 1.92 1.99 2.21 2.21 1.99 2.15 2.57 2.71 2.44 2.35 1.94 1.42 1.60 1.73 1.81 2.07
1.81 2.55 3.35 4.11 4.45 4.47 4.26 3.96 3.78 3.40 3.28 3.23 3.04 2.83 2.80 2.54 2.38 2.17 2.08 1.78 1.61 1.62 1.68 1.68 1.60 1.70 1.61 1.81 1.96 2.06 2.26 2.26 2.03 2.02 2.43 2.39 2.33 2.10 1.62 1.37 1.47 1.76 2.05
1.95 2.64 3.17 3.40 3.55 3.49 3.20 3.01 2.94 2.86 2.81 2.73 2.63 2.34 2.21 2.20 2.05 1.95 1.96 1.85 1.63 1.61 1.62 1.57 1.67 1.69 1.55 1.82 1.57 1.72 2.05 2.23 2.06 2.01 1.92 1.96 2.14 2.19 2.03 1.73 1.48 1.62 1.75
1.52 1.71 1.92 2.08 2.21 2.23 2.38 2.47 2.60 2.72 2.63 2.57 2.55 2.47 2.19 2.15 2.12 2.11 2.21 2.08 1.86 1.66 1.46 1.54 1.73 1.76 1.62 1.65 1.64 1.85 1.86 1.94 1.98 1.95 1.92 2.08 2.14 1.96 2.01 2.00 1.85 1.75 1.48
0.96 1.06 1.15 1.26 1.49 1.54 1.74 1.95 2.10 2.26 2.43 2.46 2.30 2.21 2.16 2.21 2.25 2.19 2.02 1.83 1.69 1.59 1.47 1.57 1.84 1.83 1.79 1.74 1.70 1.73 1.77 1.95 2.07 2.02 1.90 1.99 2.10 2.08 2.17 1.97 1.89 1.93 1.69
0.81 0.94 1.04 1.13 1.33 1.28 1.35 1.58 1.66 1.69 1.85 1.90 1.87 1.93 2.07 2.12 2.00 1.89 1.81 1.65 1.41 1.39 1.46 1.54 1.76 1.76 1.78 1.70 1.87 1.89 1.81 1.93 2.00 1.99 1.94 1.87 1.80 1.93 2.11 2.15 1.98 1.95 1.88
0.71 0.81 0.80 0.88 1.00 0.96 1.08 1.23 1.34 1.41 1.47 1.59 1.71 1.67 1.82 1.83 1.74 1.82 1.69 1.55 1.33 1.23 1.26 1.38 1.45 1.53 1.58 1.57 1.95 1.82 1.85 1.94 1.86 1.77 2.09 1.99 1.73 1.89 2.03 2.24 2.44 2.31 2.19
0.57 0.64 0.57 0.58 0.71 0.82 0.94 1.05 1.13 1.25 1.28 1.42 1.51 1.48 1.57 1.67 1.72 1.72 1.61 1.43 1.44 1.29 1.33 1.40 1.59 1.71 1.75 1.79 2.02 1.95 1.91 2.04 1.86 1.84 2.01 1.96 1.90 1.89 1.88 2.23 2.56 2.71 2.51
0.50 0.53 0.53 0.49 0.56 0.71 0.96 1.03 1.04 1.16 1.20 1.30 1.31 1.19 1.36 1.49 1.64 1.58 1.50 1.46 1.49 1.44 1.56 1.62 1.75 1.85 1.79 1.78 1.95 1.94 2.02 2.10 1.99 1.98 2.03 1.98 1.95 2.04 1.98 2.13 2.38 2.60 2.77
0.54 0.53 0.51 0.51 0.49 0.60 0.81 0.86 1.00 1.11 1.17 1.24 1.34 1.39 1.40 1.33 1.45 1.47 1.44 1.50 1.55 1.53 1.59 1.70 1.83 1.84 1.88 1.97 2.05 1.90 1.98 2.09 2.26 2.17 2.16 2.21 2.31 2.28 2.19 2.26 2.34 2.48 2.75
0.44 0.47 0.51 0.56 0.54 0.55 0.66 0.79 0.95 1.11 1.17 1.24 1.37 1.45 1.58 1.53 1.47 1.44 1.48 1.53 1.66 1.74 1.72 1.80 1.86 1.74 1.78 1.98 2.05 2.01 2.01 2.05 2.10 2.30 2.53 2.47 2.49 2.44 2.28 2.37 2.33 2.39 2.68
0.55 0.55 0.60 0.65 0.71 0.70 0.71 0.81 0.96 1.13 1.24 1.32 1.40 1.55 1.63 1.53 1.45 1.55 1.65 1.68 1.83 2.00 2.09 2.09 1.93 1.83 1.81 1.89 1.98 2.07 2.08 2.10 2.18 2.34 2.43 2.46 2.63 2.50 2.39 2.32 2.29 2.38 2.54
0.66 0.61 0.60 0.64 0.76 0.95 0.95 1.00 1.25 1.25 1.24 1.43 1.60 1.69 1.72 1.64 1.58 1.67 1.79 1.81 1.88 2.05 2.20 2.16 2.08 2.04 1.94 1.81 1.78 1.83 1.91 2.08 2.24 2.29 2.22 2.31 2.53 2.58 2.56 2.37 2.32 2.44 2.57
0.65 0.59 0.59 0.65 0.75 0.90 1.01 1.13 1.18 1.35 1.39 1.57 1.72 1.77 1.90 1.92 1.93 2.02 2.02 1.94 1.95 1.98 2.15 2.20 2.22 2.19 2.03 1.78 1.82 1.95 1.94 2.12 2.15 2.08 1.97 1.97 2.19 2.43 2.50 2.27 2.26 2.40 2.43
0.67 0.70 0.74 0.77 0.79 0.84 0.94 1.03 1.10 1.29 1.50 1.76 2.06 2.09 2.13 2.13 2.21 2.37 2.45 2.33 2.29 2.37 2.42 2.35 2.29 2.22 1.85 1.95 1.99 1.97 1.99 2.12 2.13 2.07 1.99 1.87 1.86 1.87 2.01 2.12 2.24 2.37 2.34
0.83 0.89 1.00 0.97 0.93 0.94 0.97 1.05 1.15 1.32 1.61 1.90 2.15 2.29 2.34 2.37 2.47 2.58 2.59 2.53 2.58 2.73 2.75 2.64 2.46 2.30 2.21 2.13 1.91 1.85 1.75 1.80 1.85 1.92 1.91 1.64 1.49 1.60 1.52 1.70 1.87 1.99 2.07
0.84 0.91 1.08 1.12 1.08 1.08 1.14 1.25 1.42 1.65 1.93 2.14 2.28 2.39 2.40 2.42 2.48 2.54 2.44 2.45 2.57 2.64 2.68 2.62 2.48 2.36 2.27 2.13 1.79 1.72 1.50 1.54 1.58 1.64 1.65 1.60 1.52 1.50 1.57 1.59 1.57 1.55 1.63
0.91 0.98 1.10 1.22 1.31 1.35 1.41 1.47 1.61 1.81 2.04 2.20 2.23 2.21 2.30 2.39 2.45 2.46 2.48 2.50 2.51 2.39 2.29 2.24 2.24 2.22 2.23 2.16 1.84 1.67 1.47 1.55 1.57 1.58 1.61 1.65 1.57 1.72 1.63 1.56 1.58 1.60 1.61
1.01 1.10 1.11 1.17 1.30 1.40 1.41 1.50 1.69 1.90 2.09 2.24 2.26 2.23 2.32 2.42 2.47 2.53 2.57 2.51 2.41 2.32 2.25 2.12 2.13 2.12 2.10 2.13 1.78 1.61 1.47 1.56 1.58 1.63 1.63 1.63 1.53 1.56 1.45 1.38 1.50 1.50 1.53
1.13 1.12 1.16 1.18 1.23 1.33 1.42 1.53 1.68 1.81 1.95 2.11 2.22 2.35 2.51 2.59 2.62 2.63 2.56 2.47 2.35 2.34 2.31 2.21 2.13 2.10 2.05 2.07 1.79 1.60 1.40 1.55 1.75 1.73 1.66 1.66 1.59 1.31 1.24 1.22 1.24 1.29 1.36
1.14 1.18 1.21 1.32 1.38 1.44 1.48 1.58 1.59 1.68 1.85 1.90 2.03 2.09 2.23 2.34 2.36 2.44 2.40 2.41 2.34 2.25 2.18 2.08 1.97 1.92 1.93 1.83 1.71 1.53 1.37 1.43 1.58 1.68 1.69 1.70 1.58 1.30 1.18 1.07 1.05 1.07 1.03
1.32 1.33 1.27 1.32 1.37 1.46 1.56 1.64 1.62 1.59 1.66 1.76 1.89 2.01 2.08 2.26 2.35 2.37 2.31 2.23 2.16 2.05 1.95 1.86 1.78 1.79 1.83 1.78 1.58 1.37 1.28 1.31 1.38 1.53 1.69 1.59 1.41 1.23 1.07 1.01 0.97 0.92 0.86
1.11 1.22 1.23 1.27 1.42 1.40 1.45 1.56 1.64 1.63 1.68 1.77 1.81 1.90 1.99 2.11 2.31 2.33 2.18 2.03 1.90 1.81 1.78 1.74 1.76 1.82 1.85 1.77 1.59 1.37 1.23 1.25 1.30 1.36 1.42 1.41 1.38 1.30 1.18 1.07 0.96 0.87 0.92
0.96 1.01 1.06 1.12 1.18 1.20 1.24 1.34 1.46 1.52 1.52 1.51 1.49 1.52 1.68 1.84 1.99 2.02 1.94 1.77 1.66 1.74 1.77 1.74 1.72 1.66 1.60 1.67 1.60 1.40 1.32 1.33 1.36 1.30 1.31 1.33 1.42 1.44 1.43 1.39 1.29 1.22 1.20
0.81 0.88 0.94 0.97 1.02 1.06 1.15 1.26 1.44 1.59 1.61 1.53 1.43 1.41 1.41 1.48 1.67 1.87 1.93 1.79 1.57 1.60 1.56 1.50 1.44 1.41 1.38 1.38 1.38 1.31 1.26 1.30 1.31 1.21 1.31 1.45 1.53 1.60 1.61 1.60 1.49 1.35 1.22